Orbital Elements at Epoch 2459200.5 (2020-Dec-17.0) TDB
Reference: JPL 16 (heliocentric ecliptic J2000)
Element | Value | Uncertainty (1-sigma) | Units |
e | .1565963769760259 | 7.5172e-08 | |
a | 2.599912348306524 | 1.4441e-08 | au |
q | 2.192775494106491 | 1.9795e-07 | au |
i | 14.36910674451162 | 8.2082e-06 | deg |
node | 16.34925946814005 | 1.392e-05 | deg |
peri | 8.587678127140409 | 2.3293e-05 | deg |
M | 2.824529267805942 | 1.5786e-05 | deg |
tp | 2459188.486209192971 (2020-Dec-04.98620919) | 6.7155e-05 | TDB |
period | 1531.216100263707 4.19 | 1.2757e-05 3.493e-08 | d yr |
n | .2351072457623719 | 1.9588e-09 | deg/d |
Q | 3.007049202506558 | 1.6702e-08 | au |
|
| | Orbit Determination Parameters
Additional Information
|